Location: Camoruquito
(9.9001°N, 67.3564°W)
Time: 12:28:08
(UTC+00:00)

Ariane H10-3 - Pass Details

Date: 14 April 2024
Orbit: 343 x 23442 km, 7.6° (Epoch: 29 May)

Event Time Altitude Azimuth Distance (km) Brightness Sun altitude
Exits shadow 09:11:40 15° 186° (S) 1,248 3.9 -17.2°
Maximum altitude 09:11:43 15° 185° (S) 1,240 3.9 -17.2°
Drops below altitude 10° 09:13:16 10° 145° (SE) 1,318 4.5 -16.8°
Sets 09:15:30 0° 113° (ESE) 2,130 6.2 -16.3°
